Vorticity
14 19 15 17 17 16 15 14 14 15 17 14 8 6 7 6 9 10 10 15 21 24 25 26 26 20 7 -5 1 17 10 -2 3 3 -0 4 3 9 19 12 2 -1 -2 5 7 1 1 -1 -2 6 9 6 6 9 9 10 12 8 6 10 9 7 6 -1 -1 9 14 3 -5 2 12 11 10 6 3 4 1 1 4 2 1 4 4 2 2 2 -0
19 20 17 18 18 18 17 16 17 17 17 15 13 15 11 7 12 15 18 27 31 28 23 18 14 10 -3 -17 -4 22 18 4 7 -3 -12 -2 2 7 16 6 -2 1 -2 1 6 4 2 1 2 6 6 4 5 5 5 7 10 7 3 6 11 10 7 5 0 0 11 12 1 1 5 5 9 9 7 9 7 4 4 0 0 5 7 6 6 4 0
22 19 16 17 16 16 16 17 18 17 19 21 24 23 14 10 18 24 26 26 21 16 12 9 7 7 2 -11 -8 11 11 5 12 5 -6 -4 -5 2 12 6 1 4 -2 -5 2 6 6 5 5 7 8 7 6 3 2 5 6 5 5 4 6 8 7 9 6 -1 4 9 4 2 4 6 13 11 6 6 6 7 7 4 4 4 2 2 2 4 3
22 15 12 13 11 12 14 14 15 16 18 18 12 7 7 15 23 23 19 14 10 10 7 7 8 7 8 4 -1 3 0 -3 7 11 10 10 2 -1 6 6 5 6 1 -5 -3 1 4 3 3 8 10 10 13 10 1 2 5 4 5 6 5 5 5 7 9 7 6 5 1 1 3 4 9 14 13 7 2 4 6 5 6 6 6 4 1 5 7
19 11 8 10 8 9 11 12 13 12 8 2 -1 2 10 18 18 13 10 7 7 8 3 4 8 7 10 9 3 2 0 -3 4 9 11 17 14 5 4 3 3 7 7 -0 -2 3 4 2 2 6 6 7 16 21 12 3 3 4 6 4 2 5 5 3 5 8 11 11 5 1 2 -0 -1 5 12 10 2 -0 3 6 6 7 12 11 7 9 10
15 8 7 7 8 9 12 12 11 7 -1 -4 5 13 14 14 12 10 9 8 8 8 5 6 9 9 11 7 1 4 6 4 9 12 10 13 15 12 8 3 1 7 11 5 2 6 6 0 -4 -4 -3 -0 6 17 22 18 10 6 6 5 3 3 3 2 3 3 6 13 14 10 7 4 1 2 8 12 8 5 7 8 6 3 5 7 6 8 9
10 7 6 7 9 11 11 9 10 8 -2 -3 8 13 9 10 11 9 8 8 8 7 6 7 8 9 9 5 3 7 10 11 14 15 13 11 11 12 12 9 6 7 12 9 4 3 4 2 -0 -2 -0 3 3 5 11 20 24 16 9 8 6 4 1 1 4 2 -2 3 12 18 17 14 8 1 0 5 7 8 11 11 7 1 -1 2 6 7 7
6 6 6 7 10 11 9 10 12 6 -4 1 14 14 9 10 10 7 8 8 7 7 6 4 5 6 4 5 10 10 8 11 14 14 14 13 11 11 11 12 12 11 13 13 9 7 6 5 7 8 7 8 9 5 -2 5 19 22 18 14 10 9 6 -1 -1 2 1 -2 1 10 18 20 15 6 2 3 6 9 13 11 8 6 1 1 6 8 7
5 5 6 7 10 10 10 12 10 1 -2 7 14 12 12 13 11 9 9 6 5 7 7 5 7 9 6 6 10 10 5 6 8 9 13 13 12 12 9 9 11 10 12 15 13 12 13 10 9 10 11 10 11 11 6 2 6 13 18 19 17 20 19 9 3 2 -2 -6 -5 10 28 29 18 9 5 6 9 13 16 15 14 15 9 2 3 5 6
5 6 7 7 7 8 10 12 8 0 2 7 7 10 19 19 11 8 7 4 4 3 1 2 8 11 9 7 9 9 7 7 7 8 10 13 15 15 12 11 12 11 12 16 18 18 19 19 17 14 13 13 13 16 15 12 9 9 12 14 15 19 21 22 24 23 17 8 -3 3 27 35 23 14 10 8 7 6 7 8 10 14 14 10 10 9 7
6 7 8 6 6 9 11 11 7 0 3 9 9 13 21 19 10 7 6 4 6 5 -0 -1 4 6 6 6 7 8 10 11 10 9 10 12 16 18 17 15 14 13 14 16 19 20 19 21 23 21 17 15 14 15 14 12 11 9 9 12 14 16 18 19 22 25 32 33 11 -8 3 20 21 17 15 14 15 14 11 8 5 6 9 13 21 22 15
8 8 8 5 7 12 12 11 6 0 4 12 10 8 11 10 6 7 7 4 4 8 6 3 4 5 5 6 8 8 11 12 10 9 11 13 12 13 14 14 13 14 14 13 12 12 12 14 15 17 17 15 11 11 12 11 10 8 8 9 10 11 15 16 16 13 16 25 20 2 -2 6 10 11 9 7 11 16 17 15 11 8 6 8 17 27 27
9 8 6 6 10 14 13 8 -1 -2 9 14 10 7 5 2 3 7 10 6 2 4 6 4 4 5 7 10 12 11 9 9 8 7 10 11 10 8 9 10 11 12 13 13 9 7 8 10 11 14 16 14 11 11 13 11 10 9 9 11 9 7 6 8 12 13 9 12 17 14 10 9 10 12 11 7 7 9 12 13 13 10 5 1 0 5 13
9 9 6 8 13 14 13 5 -8 -2 13 12 9 14 10 2 6 9 8 8 7 6 8 9 9 8 9 12 12 10 8 7 8 8 10 10 10 10 10 9 9 11 13 13 10 8 7 8 12 15 15 12 10 10 11 12 11 10 9 10 11 10 6 2 2 4 5 7 8 9 10 10 9 10 10 11 10 9 8 9 11 11 9 4 -1 -5 -2
10 10 7 10 17 14 12 4 -12 -9 7 4 3 12 9 2 5 6 3 6 9 9 12 14 12 9 10 12 10 9 10 10 8 8 9 9 9 9 8 8 8 11 12 12 11 11 11 9 11 13 12 10 8 8 9 10 9 9 9 9 12 14 12 9 7 6 5 5 3 3 5 8 9 9 9 10 11 12 11 9 10 12 12 11 10 9 8
11 9 6 15 19 12 11 4 -16 -13 7 9 4 5 3 2 2 1 3 7 8 11 15 13 10 8 10 12 10 8 9 10 8 7 7 7 7 7 8 9 9 11 12 12 12 11 10 10 11 12 11 9 7 8 9 9 9 10 10 10 12 14 13 10 10 9 8 7 7 7 7 8 8 8 8 7 7 10 13 13 13 13 12 12 12 12 12
11 7 10 21 19 10 13 5 -16 -12 7 11 8 7 6 8 5 2 7 9 8 13 18 14 10 8 9 11 9 8 8 8 7 8 8 8 8 9 10 10 10 11 11 11 12 12 11 11 10 11 10 9 9 9 9 9 9 9 9 8 7 7 8 8 8 8 9 10 9 8 9 10 10 10 10 9 8 8 9 10 11 11 12 13 12 11 9
9 10 16 21 12 9 19 9 -14 -13 2 8 11 14 12 11 9 7 11 11 6 8 13 17 15 10 8 9 8 8 10 9 9 9 10 12 14 13 13 13 12 11 11 10 10 10 10 11 11 10 10 10 11 10 9 10 11 10 11 12 11 9 9 10 11 10 10 11 11 11 11 10 10 12 14 14 14 15 15 14 15 16 16 15 14 14 14
14 17 17 13 8 12 23 11 -14 -14 3 9 8 10 11 11 11 8 7 9 9 3 3 13 19 12 7 8 8 7 9 9 10 9 9 11 12 11 12 14 13 13 13 13 12 12 11 11 10 10 11 12 13 12 12 13 14 14 14 14 14 15 16 16 15 13 12 12 13 12 12 11 9 9 11 11 11 12 14 16 19 22 22 19 17 17 17
17 16 9 8 12 17 21 11 -9 -13 1 7 5 7 9 10 11 7 4 10 15 7 1 10 16 10 7 8 9 11 11 10 11 11 11 12 11 9 12 15 16 16 17 16 15 14 14 14 14 12 12 13 15 15 13 13 14 14 13 13 15 16 17 17 16 14 13 13 13 13 15 18 17 12 11 11 12 13 13 12 13 16 18 19 18 16 16
13 10 8 12 18 17 16 11 -1 -7 -3 2 3 7 8 7 7 5 3 10 13 7 5 11 12 9 9 10 11 12 11 11 13 14 12 12 13 15 15 17 19 21 24 25 24 20 17 16 17 17 15 13 14 14 13 12 12 11 10 10 11 11 12 14 14 12 10 8 8 8 10 14 17 17 15 13 11 8 7 7 7 8 11 13 13 11 11
10 10 14 17 16 12 10 10 6 1 -1 0 4 9 9 7 6 3 1 7 10 6 7 11 10 10 11 10 10 12 10 10 13 14 10 11 17 19 13 9 11 12 15 22 26 26 25 21 17 17 18 18 16 15 14 13 11 11 11 9 9 9 9 10 10 10 10 9 9 10 9 9 12 14 14 15 11 6 4 6 8 8 8 8 9 9 9
16 17 19 18 13 9 7 7 7 5 3 5 8 10 9 8 7 4 4 8 10 7 9 11 10 11 12 10 9 11 11 11 12 13 13 15 17 14 9 10 13 10 10 15 17 19 24 25 21 17 16 15 14 15 18 19 17 17 18 16 14 13 11 9 9 10 12 13 13 12 12 14 17 16 14 17 17 13 12 15 15 13 10 8 8 10 11
16 17 17 15 11 9 8 7 7 7 7 8 9 9 8 8 8 7 8 10 9 8 9 10 11 11 10 10 11 12 13 14 13 15 19 18 13 10 10 14 14 10 13 21 20 17 21 23 19 16 16 17 17 17 20 20 17 17 18 19 18 15 11 9 9 10 12 14 16 17 18 18 19 16 13 13 14 16 19 23 23 20 16 14 13 13 14
8 9 11 11 9 9 9 9 8 8 8 9 9 9 8 7 6 7 9 9 8 9 10 10 10 10 9 11 12 12 14 14 14 16 18 13 10 11 13 13 9 8 18 29 30 28 26 21 17 18 22 20 13 8 11 15 15 15 15 15 14 11 9 10 13 18 22 20 20 28 30 23 16 14 14 14 14 15 17 17 16 15 13 13 13 12 11
6 7 8 9 9 10 10 9 8 8 8 8 9 8 7 6 6 6 8 7 7 11 12 10 9 10 11 12 12 14 17 17 14 13 13 9 7 8 8 8 8 10 18 29 33 31 26 19 12 11 11 8 4 4 9 14 16 16 14 13 15 16 16 16 20 28 28 19 17 27 31 26 19 16 17 16 14 11 10 9 8 9 8 8 9 10 11
7 7 8 11 13 12 10 8 7 8 8 8 8 7 6 6 6 6 7 8 9 12 12 10 9 9 10 11 13 16 18 17 13 12 12 9 6 5 5 7 10 9 11 22 31 29 21 15 12 10 10 12 18 23 21 21 26 30 27 22 21 22 24 22 21 25 25 20 21 23 19 17 18 16 12 12 11 9 9 9 9 9 9 9 9 9 10
8 9 12 16 15 11 8 8 8 9 8 8 8 8 7 7 6 6 7 8 10 11 10 9 10 10 10 12 15 16 17 16 13 12 10 8 7 8 9 13 18 15 11 17 27 26 19 14 15 19 21 22 25 25 18 16 25 37 41 37 26 20 21 19 15 18 22 20 21 19 10 8 14 14 10 11 11 9 9 9 8 8 7 6 5 4 5
11 14 16 16 13 9 8 9 8 8 8 7 7 7 7 6 6 7 8 9 10 10 10 10 10 10 10 13 15 15 14 13 11 10 10 12 14 16 15 16 20 19 14 15 20 22 19 16 17 19 19 16 17 18 12 8 11 18 26 30 24 17 16 13 8 14 20 16 13 15 12 8 9 8 7 7 6 6 5 5 5 5 4 4 4 5 6
15 15 14 11 10 10 10 9 8 7 8 7 7 7 7 6 7 8 9 9 8 8 8 9 10 9 10 12 14 15 14 13 14 15 15 14 15 15 15 14 15 15 13 11 12 14 15 15 16 16 13 11 13 15 12 11 14 14 12 15 15 14 14 11 5 6 10 8 6 8 7 6 5 5 5 5 5 6 6 6 8 9 9 10 11 11 11
12 11 9 9 10 10 9 8 8 8 8 7 7 8 7 6 7 10 11 9 7 7 8 9 8 8 9 11 13 14 14 14 15 16 14 12 11 11 11 11 11 11 11 9 9 11 14 15 15 15 11 8 10 11 8 8 12 12 9 7 8 7 6 5 4 3 4 5 5 5 5 6 6 7 7 7 7 8 9 9 10 10 11 11 11 12 13
9 8 9 10 10 9 9 8 9 9 8 7 8 9 8 6 7 11 12 9 7 6 7 8 7 6 7 9 10 11 11 11 11 10 9 8 8 8 9 9 8 7 7 7 6 7 8 8 8 7 6 5 5 5 4 4 5 6 5 4 4 4 4 5 5 6 7 7 7 7 8 8 8 8 8 8 8 9 9 9 10 11 12 13 13 13 13
8 8 9 10 9 8 9 9 9 8 8 8 8 8 8 8 8 10 11 10 8 7 7 7 7 6 6 8 8 8 7 7 6 6 6 6 7 6 6 6 5 4 4 5 4 4 4 5 4 3 4 7 7 5 5 7 8 8 9 8 8 9 9 8 7 7 7 8 8 8 8 8 9 9 10 10 10 11 12 12 13 13 12 11 10 10 9
8 8 9 9 8 9 10 10 9 9 8 8 8 9 9 9 8 9 10 10 10 8 6 6 6 5 4 6 6 6 6 6 5 5 6 7 7 6 5 5 6 5 6 6 6 5 5 6 6 5 6 8 8 7 7 9 10 10 10 9 9 9 9 8 8 9 9 8 8 8 8 8 9 9 9 10 10 10 10 9 9 8 7 7 7 7 6
9 9 9 9 8 9 10 9 9 10 9 8 8 9 10 8 8 9 10 10 10 9 6 5 5 4 4 5 5 6 6 6 6 6 6 5 6 7 7 8 8 7 7 7 7 7 6 6 6 7 6 7 8 8 8 8 9 9 8 7 7 8 9 8 9 9 10 10 10 10 9 9 9 8 9 10 10 8 7 5 5 5 5 6 5 5 6
9 8 9 9 8 9 10 9 9 9 8 8 8 9 9 7 7 10 12 11 9 8 6 5 5 5 5 5 4 4 6 6 6 6 6 5 6 7 7 7 7 8 8 7 7 7 8 7 7 7 6 7 7 7 7 7 6 6 6 6 6 7 8 9 9 9 9 10 10 9 9 8 9 10 10 9 8 7 4 3 3 5 6 6 6 6 7
9 8 8 8 8 9 9 9 9 8 7 7 8 9 8 7 6 9 12 12 8 6 6 6 5 4 5 5 5 5 6 7 6 6 6 7 7 8 7 7 7 8 8 7 7 7 7 7 7 7 7 7 6 6 6 6 6 5 5 6 7 9 10 10 9 8 9 10 11 11 10 11 11 11 9 7 7 6 5 6 7 7 7 7 8 8 9
9 9 8 8 8 9 9 9 8 8 7 7 7 9 9 8 6 8 12 13 10 7 6 6 5 4 4 4 4 5 6 6 5 5 5 6 7 7 7 7 7 8 8 8 7 7 6 6 6 6 5 4 4 5 5 4 4 5 5 6 6 8 10 11 10 9 10 12 13 12 11 10 10 9 8 7 7 7 7 8 9 9 9 9 9 9 9
10 10 9 9 8 9 9 9 8 8 8 7 7 9 9 8 7 8 11 12 12 9 7 6 6 6 5 4 4 5 6 6 5 5 4 4 5 6 6 5 6 8 8 7 6 6 5 4 5 4 3 3 3 3 4 5 4 4 5 6 6 7 9 11 12 11 12 13 13 11 10 10 10 10 9 8 8 8 9 10 10 10 11 11 10 9 9
10 10 10 10 10 9 9 8 7 7 8 8 8 9 9 8 8 9 9 11 13 12 10 8 7 7 6 7 6 5 5 5 5 4 4 4 4 4 5 5 5 6 6 5 6 6 5 4 4 4 4 4 4 4 4 5 5 5 6 7 7 8 10 13 13 12 13 13 13 12 12 12 13 12 11 10 10 10 10 10 10 10 9 9 9 8 8
10 10 10 10 10 10 9 8 8 7 8 9 9 9 8 8 9 9 9 11 13 13 12 11 10 8 8 9 9 7 6 6 5 5 5 6 5 4 4 5 5 5 4 4 4 5 5 5 5 6 5 4 5 5 5 6 6 6 7 7 7 8 11 12 12 12 13 14 13 13 13 13 12 11 10 9 10 10 10 10 11 10 10 9 9 9 9
10 10 10 11 10 9 9 9 9 8 9 10 10 9 9 9 10 10 10 11 11 11 11 12 12 11 10 11 11 10 9 8 8 7 7 8 8 6 7 7 7 6 6 6 6 6 6 5 5 5 6 6 7 6 6 7 7 6 7 8 7 8 11 12 12 11 13 13 13 13 13 12 11 10 9 9 9 9 9 9 10 9 9 9 9 9 10
10 10 10 10 11 9 9 9 9 9 10 11 11 10 10 10 10 11 11 11 12 11 9 11 12 12 11 11 12 12 11 10 10 10 9 8 8 7 8 9 9 8 8 9 9 9 9 8 6 7 9 9 8 8 8 8 8 7 8 8 7 9 12 13 12 12 13 13 12 12 11 10 9 9 9 9 9 9 9 9 10 9 10 10 10 10 9
10 10 9 10 10 9 9 9 9 9 11 12 10 10 11 11 11 11 10 11 12 11 9 10 12 12 11 12 12 11 10 10 10 11 11 10 9 10 11 11 9 10 11 11 11 13 14 11 9 10 10 9 8 8 9 8 9 9 8 8 9 11 13 13 12 13 14 13 11 11 10 9 9 8 8 8 9 9 9 10 10 11 10 10 10 10 9
10 10 9 10 11 10 9 8 8 9 11 11 10 9 9 9 9 10 9 10 11 10 8 9 12 12 11 12 12 10 10 11 12 12 12 10 10 13 14 11 10 11 13 14 15 17 15 10 8 9 10 9 8 9 8 8 10 10 9 9 12 13 13 13 13 14 14 11 10 9 8 7 7 8 8 9 9 9 9 10 10 11 11 10 10 9 8
10 10 8 9 11 11 9 8 7 8 9 10 9 9 10 9 9 9 8 8 10 9 6 7 10 11 9 9 10 9 10 11 11 11 10 9 11 12 11 9 9 10 11 11 13 14 12 9 9 10 9 9 9 9 8 9 10 9 9 12 14 14 13 14 14 13 11 9 7 7 6 7 7 7 7 8 9 9 10 11 11 11 10 9 8 8 7
10 11 9 9 11 10 8 8 7 7 8 9 8 9 10 9 9 8 8 7 9 10 8 6 8 9 8 7 8 8 8 9 9 9 7 8 8 7 5 7 10 11 10 9 10 10 11 12 11 9 8 9 10 9 9 10 9 9 11 14 15 14 14 14 13 10 8 7 6 6 6 6 7 8 8 8 9 9 10 11 10 9 8 8 8 8 8
10 11 9 10 11 10 7 7 8 7 8 9 10 10 10 10 9 9 9 8 8 9 8 6 7 8 8 8 7 7 7 7 8 7 6 6 7 6 5 8 10 10 10 12 12 12 14 14 11 8 9 11 11 10 10 10 9 10 13 16 16 15 14 12 9 7 6 6 6 6 6 6 8 8 8 8 9 10 10 9 8 7 6 6 7 7 7
10 11 9 10 12 11 7 7 8 8 8 9 10 11 11 11 10 10 10 9 8 8 8 8 7 8 9 9 9 8 8 9 8 7 7 8 9 9 9 10 11 10 13 16 17 15 13 10 7 8 11 12 11 11 11 10 10 13 16 17 16 14 12 9 7 6 6 6 6 6 5 6 8 9 9 8 9 9 8 6 6 5 5 6 6 7 7
9 11 10 10 11 11 9 8 8 8 8 9 10 10 11 11 11 12 13 12 10 9 9 11 11 11 11 11 10 10 11 11 10 9 10 11 12 11 10 10 10 11 14 16 15 11 7 5 6 10 13 13 12 12 11 11 13 16 17 15 13 11 9 7 6 6 6 6 6 6 5 6 9 10 9 8 9 7 5 4 5 6 6 6 7 7 8
8 9 9 9 9 10 10 9 9 9 9 9 9 10 11 10 10 11 13 12 10 9 10 12 13 12 11 11 11 12 12 11 10 10 11 11 11 10 10 10 11 13 14 14 10 6 5 7 10 12 13 12 11 11 12 14 17 18 16 13 11 9 6 5 5 5 5 6 7 6 5 6 9 10 9 8 7 5 3 4 6 7 7 8 8 8 8
7 8 8 8 8 9 9 9 9 10 10 9 9 10 10 9 9 10 11 10 9 10 11 12 11 10 9 10 10 10 10 9 9 10 10 9 8 8 10 12 13 12 11 9 6 6 8 12 14 14 13 12 11 13 16 19 18 16 13 10 7 5 4 3 4 5 6 7 8 8 7 6 8 10 9 7 5 3 3 6 8 8 7 7 8 8 9
Height
5530 5531 5533 5534 5536 5538 5541 5543 5546 5548 5551 5554 5557 5560 5564 5568 5572 5575 5578 5581 5584 5588 5590 5594 5598 5601 5604 5607 5610 5612 5615 5620 5624 5626 5628 5630 5634 5637 5641 5644 5645 5646 5648 5649 5651 5653 5655 5657 5660 5662 5664 5667 5670 5672 5673 5676 5678 5680 5682 5684 5686 5689 5692 5695 5697 5696 5697 5700 5702 5704 5705 5706 5707 5708 5710 5712 5714 5715 5716 5718 5719 5720 5721 5722 5724 5725 5725
5530 5531 5533 5535 5538 5540 5542 5544 5546 5549 5551 5554 5558 5562 5566 5570 5574 5576 5579 5582 5585 5588 5590 5593 5595 5598 5602 5605 5608 5612 5616 5620 5624 5627 5628 5630 5633 5636 5640 5642 5644 5645 5646 5647 5649 5652 5654 5656 5659 5661 5663 5665 5667 5670 5672 5674 5676 5678 5680 5681 5684 5686 5689 5692 5694 5694 5695 5697 5699 5701 5703 5705 5705 5706 5708 5710 5711 5713 5714 5715 5717 5718 5719 5720 5721 5722 5723
5530 5532 5534 5537 5539 5541 5543 5546 5548 5550 5553 5556 5559 5563 5567 5571 5575 5577 5580 5583 5586 5589 5591 5593 5595 5598 5601 5605 5609 5614 5618 5621 5623 5626 5628 5631 5633 5636 5638 5640 5643 5644 5645 5646 5648 5652 5654 5656 5658 5660 5662 5664 5666 5668 5670 5673 5675 5676 5678 5679 5682 5685 5687 5689 5691 5692 5693 5695 5696 5699 5701 5703 5704 5705 5706 5708 5710 5711 5712 5713 5715 5716 5717 5717 5719 5720 5721
5530 5533 5535 5538 5540 5543 5545 5547 5549 5552 5555 5558 5561 5565 5569 5573 5576 5578 5581 5584 5587 5590 5592 5594 5598 5601 5604 5608 5612 5616 5619 5621 5623 5625 5628 5631 5634 5636 5638 5639 5642 5644 5645 5646 5648 5651 5653 5656 5658 5660 5662 5663 5664 5667 5669 5671 5673 5674 5676 5678 5680 5682 5684 5686 5688 5690 5692 5693 5694 5696 5698 5700 5702 5703 5704 5706 5708 5709 5710 5711 5712 5714 5714 5715 5716 5717 5719
5531 5534 5537 5539 5542 5544 5547 5549 5551 5554 5557 5560 5563 5567 5570 5574 5577 5580 5582 5584 5588 5591 5594 5597 5601 5604 5607 5610 5613 5616 5619 5621 5623 5625 5627 5631 5634 5636 5637 5639 5640 5643 5645 5646 5648 5650 5653 5655 5657 5660 5661 5662 5664 5666 5668 5670 5672 5673 5675 5676 5678 5680 5682 5683 5685 5687 5690 5692 5693 5693 5695 5698 5700 5701 5702 5704 5705 5707 5707 5708 5710 5711 5712 5713 5714 5715 5717
5532 5535 5538 5541 5543 5546 5548 5551 5553 5556 5559 5562 5566 5568 5572 5575 5578 5581 5583 5586 5589 5593 5596 5599 5602 5606 5608 5610 5613 5616 5618 5619 5621 5624 5627 5629 5632 5634 5635 5637 5639 5642 5644 5645 5646 5648 5650 5652 5655 5657 5659 5660 5663 5665 5667 5668 5670 5671 5673 5674 5676 5678 5679 5680 5682 5685 5687 5690 5691 5692 5693 5695 5697 5699 5700 5702 5703 5704 5705 5706 5707 5708 5709 5710 5712 5713 5714
5533 5536 5539 5542 5545 5547 5550 5552 5555 5558 5561 5564 5568 5570 5573 5577 5580 5583 5585 5588 5591 5595 5598 5600 5603 5606 5608 5610 5612 5615 5618 5619 5621 5623 5626 5628 5630 5631 5633 5635 5638 5640 5642 5644 5645 5646 5648 5649 5651 5654 5656 5658 5661 5663 5664 5665 5666 5669 5671 5672 5674 5676 5676 5677 5680 5682 5685 5687 5688 5690 5691 5692 5694 5695 5697 5698 5700 5701 5702 5703 5704 5705 5706 5708 5709 5710 5711
5534 5538 5540 5543 5546 5548 5551 5554 5556 5560 5563 5566 5569 5572 5575 5578 5582 5585 5587 5590 5593 5596 5599 5601 5603 5606 5608 5610 5613 5615 5617 5618 5620 5622 5624 5626 5628 5629 5631 5634 5635 5637 5640 5642 5643 5644 5646 5647 5649 5651 5653 5656 5658 5660 5661 5662 5664 5666 5668 5669 5671 5672 5673 5675 5677 5680 5681 5683 5685 5686 5687 5689 5690 5692 5693 5695 5696 5698 5699 5700 5701 5702 5703 5705 5706 5707 5708
5535 5539 5542 5544 5547 5550 5552 5555 5558 5561 5564 5567 5570 5573 5576 5579 5583 5586 5588 5591 5594 5597 5599 5601 5604 5606 5608 5610 5612 5614 5615 5616 5619 5621 5622 5624 5626 5627 5629 5632 5634 5635 5638 5640 5641 5643 5645 5646 5647 5649 5651 5653 5655 5657 5659 5660 5662 5664 5665 5667 5668 5670 5671 5673 5675 5677 5678 5680 5682 5683 5683 5685 5686 5688 5690 5691 5693 5695 5696 5697 5698 5699 5700 5702 5703 5704 5704
5536 5540 5543 5545 5548 5551 5554 5556 5559 5562 5565 5568 5571 5574 5577 5580 5583 5587 5589 5592 5595 5597 5599 5601 5603 5605 5607 5609 5611 5613 5614 5616 5618 5620 5621 5623 5625 5626 5628 5630 5631 5633 5636 5639 5640 5642 5644 5644 5646 5648 5649 5651 5653 5654 5655 5657 5659 5661 5663 5665 5666 5667 5668 5670 5672 5674 5674 5676 5678 5679 5680 5681 5683 5685 5687 5689 5690 5691 5693 5694 5695 5696 5697 5698 5699 5700 5701
5537 5540 5543 5546 5549 5552 5555 5558 5560 5564 5567 5570 5573 5576 5579 5582 5585 5587 5590 5592 5594 5596 5599 5601 5603 5604 5606 5608 5610 5612 5614 5616 5617 5619 5620 5622 5624 5625 5627 5628 5630 5632 5634 5636 5638 5640 5641 5641 5642 5644 5647 5648 5649 5650 5651 5653 5656 5659 5661 5662 5663 5664 5665 5667 5669 5670 5671 5672 5674 5675 5676 5678 5680 5683 5684 5686 5687 5688 5690 5691 5692 5693 5694 5695 5696 5697 5698
5538 5541 5544 5547 5550 5553 5556 5559 5562 5565 5569 5572 5575 5578 5581 5583 5585 5587 5590 5592 5594 5597 5599 5600 5602 5603 5605 5607 5610 5612 5614 5615 5616 5618 5620 5621 5623 5624 5625 5626 5628 5630 5632 5633 5635 5636 5637 5638 5639 5640 5643 5645 5645 5646 5648 5651 5654 5656 5658 5660 5660 5662 5663 5664 5666 5667 5668 5670 5671 5672 5674 5676 5678 5680 5681 5682 5684 5685 5686 5687 5689 5690 5691 5692 5693 5694 5695
5539 5542 5545 5548 5551 5555 5558 5560 5563 5567 5570 5573 5576 5580 5582 5584 5585 5587 5590 5593 5596 5597 5598 5600 5601 5603 5605 5608 5610 5611 5612 5613 5615 5617 5618 5620 5621 5623 5624 5625 5626 5628 5629 5630 5632 5633 5634 5635 5636 5638 5640 5641 5642 5643 5646 5648 5650 5653 5655 5657 5658 5659 5661 5662 5663 5665 5666 5668 5669 5670 5672 5674 5675 5677 5678 5679 5681 5682 5683 5684 5686 5687 5688 5690 5691 5692 5693
5540 5543 5546 5549 5553 5556 5559 5562 5565 5569 5572 5574 5577 5581 5583 5584 5586 5588 5591 5594 5596 5598 5599 5601 5603 5604 5606 5607 5609 5611 5611 5612 5614 5616 5617 5619 5620 5622 5623 5624 5625 5626 5627 5628 5629 5631 5632 5633 5635 5636 5637 5638 5639 5642 5644 5645 5647 5650 5653 5654 5655 5656 5657 5659 5661 5663 5664 5666 5667 5668 5670 5671 5672 5674 5675 5677 5678 5679 5680 5681 5683 5684 5685 5686 5687 5689 5690
5541 5544 5547 5550 5553 5557 5560 5563 5567 5570 5573 5575 5578 5580 5583 5585 5587 5590 5592 5594 5596 5599 5600 5602 5603 5604 5605 5607 5609 5610 5612 5613 5614 5615 5617 5618 5620 5621 5621 5622 5623 5625 5626 5627 5628 5629 5631 5632 5633 5634 5635 5636 5638 5640 5642 5643 5646 5648 5650 5651 5653 5654 5654 5656 5659 5661 5662 5664 5665 5667 5668 5669 5670 5671 5672 5674 5675 5676 5677 5678 5679 5681 5682 5683 5684 5685 5687
5542 5545 5548 5551 5554 5558 5561 5564 5568 5571 5574 5577 5578 5580 5583 5586 5588 5590 5592 5595 5597 5599 5601 5602 5603 5605 5606 5607 5609 5610 5611 5613 5614 5615 5616 5617 5618 5619 5620 5621 5622 5624 5625 5625 5627 5628 5629 5630 5631 5632 5633 5635 5636 5638 5640 5642 5644 5646 5647 5649 5650 5651 5652 5654 5656 5658 5660 5661 5663 5664 5665 5666 5667 5669 5670 5671 5672 5673 5675 5675 5676 5678 5679 5680 5681 5682 5683
5543 5546 5549 5552 5555 5559 5562 5565 5568 5572 5575 5577 5579 5580 5584 5587 5589 5591 5593 5596 5597 5599 5601 5603 5604 5605 5606 5608 5609 5610 5611 5613 5614 5615 5616 5617 5617 5618 5619 5620 5621 5622 5623 5624 5625 5626 5627 5628 5630 5631 5632 5633 5634 5636 5637 5639 5641 5643 5644 5646 5647 5649 5650 5652 5653 5655 5657 5658 5660 5662 5663 5664 5665 5666 5667 5668 5669 5670 5672 5672 5673 5674 5676 5677 5678 5679 5680
5543 5546 5549 5552 5556 5559 5562 5566 5569 5572 5575 5577 5579 5581 5585 5588 5590 5592 5594 5596 5598 5600 5602 5603 5604 5605 5606 5607 5609 5610 5611 5612 5613 5614 5615 5616 5617 5618 5619 5619 5620 5621 5621 5622 5623 5624 5626 5627 5628 5629 5630 5631 5632 5633 5635 5637 5639 5640 5642 5643 5645 5647 5648 5650 5651 5653 5654 5656 5657 5659 5660 5661 5662 5663 5664 5665 5666 5668 5669 5669 5670 5671 5672 5673 5674 5675 5676
5544 5547 5550 5553 5557 5560 5563 5566 5569 5572 5574 5577 5579 5582 5586 5589 5591 5593 5595 5597 5599 5601 5603 5603 5604 5605 5606 5607 5608 5609 5610 5611 5612 5613 5614 5615 5616 5616 5617 5618 5618 5619 5619 5620 5621 5622 5623 5625 5626 5627 5628 5629 5631 5632 5633 5635 5637 5638 5639 5640 5642 5644 5646 5647 5649 5650 5652 5653 5654 5656 5657 5658 5660 5661 5662 5663 5664 5665 5666 5667 5668 5669 5669 5670 5671 5671 5673
5545 5548 5551 5554 5558 5561 5564 5567 5570 5572 5575 5577 5580 5584 5587 5590 5592 5594 5595 5597 5598 5600 5601 5602 5603 5605 5606 5607 5608 5609 5610 5611 5611 5612 5613 5614 5614 5615 5615 5616 5616 5617 5618 5618 5619 5620 5621 5622 5623 5625 5626 5627 5629 5630 5631 5633 5634 5636 5637 5638 5640 5642 5643 5645 5646 5648 5649 5651 5652 5653 5655 5656 5657 5659 5660 5661 5662 5663 5664 5665 5666 5666 5667 5668 5668 5669 5670
5546 5549 5552 5556 5559 5562 5565 5568 5571 5574 5576 5579 5582 5585 5588 5590 5592 5593 5594 5596 5598 5600 5601 5602 5604 5605 5606 5607 5608 5609 5610 5610 5611 5612 5612 5613 5613 5614 5615 5615 5616 5616 5616 5617 5617 5618 5619 5620 5621 5623 5624 5625 5627 5628 5630 5631 5633 5634 5635 5637 5638 5640 5641 5643 5644 5645 5647 5648 5650 5651 5652 5654 5655 5656 5657 5659 5660 5661 5662 5663 5664 5665 5665 5666 5666 5667 5668
5548 5551 5554 5557 5560 5563 5566 5569 5572 5575 5578 5580 5583 5586 5589 5590 5592 5593 5596 5597 5599 5601 5602 5603 5604 5605 5606 5607 5608 5609 5609 5610 5610 5611 5611 5612 5613 5614 5614 5615 5615 5615 5615 5616 5616 5616 5617 5618 5619 5621 5623 5624 5626 5627 5628 5630 5631 5633 5634 5635 5637 5638 5640 5641 5642 5643 5645 5646 5647 5648 5650 5651 5652 5654 5655 5656 5657 5658 5660 5661 5662 5663 5663 5664 5664 5665 5666
5549 5552 5555 5558 5561 5565 5568 5570 5573 5576 5579 5582 5585 5587 5589 5591 5593 5595 5597 5598 5599 5601 5602 5603 5604 5605 5606 5607 5608 5608 5609 5609 5610 5610 5611 5612 5613 5613 5614 5615 5615 5615 5615 5615 5615 5615 5616 5617 5618 5620 5621 5623 5624 5626 5627 5629 5630 5631 5633 5634 5635 5636 5638 5639 5640 5642 5643 5644 5645 5646 5647 5649 5650 5652 5653 5654 5655 5656 5657 5658 5659 5660 5661 5662 5662 5663 5664
5551 5554 5557 5560 5563 5566 5569 5571 5574 5577 5580 5583 5586 5588 5590 5592 5594 5596 5597 5598 5599 5600 5602 5603 5604 5605 5606 5607 5608 5608 5609 5609 5610 5610 5611 5612 5613 5613 5614 5614 5615 5615 5615 5614 5614 5614 5615 5616 5617 5619 5621 5622 5623 5625 5627 5628 5629 5630 5631 5632 5633 5635 5636 5637 5639 5640 5641 5642 5643 5644 5645 5646 5648 5650 5652 5653 5654 5655 5656 5657 5658 5658 5659 5660 5660 5661 5661
5553 5556 5559 5561 5564 5567 5570 5572 5575 5578 5581 5584 5586 5588 5590 5592 5594 5596 5597 5599 5600 5601 5602 5603 5604 5605 5606 5607 5608 5608 5609 5609 5610 5611 5612 5612 5613 5614 5614 5615 5615 5615 5615 5614 5613 5613 5615 5616 5618 5619 5621 5622 5624 5625 5626 5627 5628 5629 5630 5631 5632 5634 5635 5636 5637 5638 5639 5640 5641 5642 5643 5645 5647 5649 5651 5652 5653 5654 5655 5656 5657 5657 5658 5658 5659 5659 5659
5555 5558 5560 5563 5565 5568 5571 5574 5576 5579 5582 5584 5587 5589 5591 5593 5594 5596 5598 5599 5601 5602 5603 5604 5605 5606 5607 5608 5608 5609 5609 5610 5610 5611 5612 5613 5614 5614 5615 5615 5616 5615 5615 5614 5613 5613 5614 5616 5618 5620 5621 5623 5624 5625 5625 5626 5627 5627 5629 5630 5632 5633 5634 5636 5637 5638 5638 5639 5640 5641 5643 5645 5647 5649 5650 5651 5652 5653 5654 5655 5656 5656 5657 5657 5657 5658 5658
5556 5559 5562 5564 5567 5569 5572 5575 5577 5580 5582 5585 5587 5589 5591 5593 5595 5596 5598 5599 5601 5603 5604 5605 5606 5607 5607 5608 5608 5609 5610 5610 5611 5612 5613 5614 5615 5615 5615 5616 5616 5616 5616 5615 5614 5615 5616 5617 5619 5620 5622 5623 5624 5624 5625 5626 5626 5626 5627 5629 5630 5632 5634 5635 5637 5638 5638 5639 5640 5642 5643 5645 5647 5649 5650 5651 5652 5653 5654 5654 5655 5655 5656 5656 5656 5656 5656
5557 5560 5563 5565 5568 5571 5573 5576 5578 5581 5583 5586 5588 5590 5592 5594 5595 5597 5598 5600 5602 5604 5605 5606 5607 5608 5608 5609 5609 5610 5611 5612 5613 5614 5615 5615 5616 5616 5616 5616 5617 5617 5617 5616 5616 5617 5618 5619 5620 5621 5622 5623 5624 5625 5625 5625 5625 5626 5627 5628 5630 5632 5634 5635 5637 5639 5640 5641 5642 5643 5644 5646 5647 5648 5649 5651 5652 5653 5653 5654 5654 5654 5655 5655 5655 5655 5654
5558 5561 5564 5566 5569 5572 5574 5577 5579 5581 5584 5586 5588 5590 5592 5594 5596 5598 5599 5601 5602 5604 5606 5607 5608 5609 5609 5610 5611 5611 5612 5613 5614 5615 5616 5616 5617 5617 5617 5618 5618 5618 5618 5618 5618 5619 5620 5620 5621 5623 5623 5624 5626 5626 5626 5627 5628 5628 5629 5630 5631 5632 5634 5635 5637 5640 5642 5643 5644 5645 5645 5646 5648 5649 5650 5651 5652 5652 5652 5653 5653 5653 5653 5653 5653 5652 5652
5559 5562 5565 5567 5570 5572 5575 5577 5580 5582 5585 5587 5589 5591 5593 5594 5597 5599 5600 5602 5603 5604 5606 5608 5609 5610 5610 5611 5612 5612 5613 5614 5615 5616 5616 5617 5618 5619 5619 5620 5620 5620 5620 5620 5621 5622 5623 5623 5624 5625 5625 5625 5628 5629 5628 5630 5632 5632 5631 5632 5633 5635 5636 5637 5638 5640 5642 5644 5645 5646 5646 5647 5648 5649 5650 5650 5651 5651 5651 5651 5651 5651 5651 5651 5650 5650 5649
5561 5563 5566 5568 5571 5573 5576 5578 5581 5583 5586 5588 5590 5592 5594 5595 5597 5599 5601 5602 5604 5605 5607 5608 5609 5611 5612 5612 5613 5614 5615 5615 5616 5617 5618 5618 5619 5620 5621 5621 5622 5622 5623 5623 5624 5624 5626 5626 5627 5627 5627 5627 5629 5631 5631 5633 5635 5635 5634 5635 5636 5637 5638 5640 5640 5642 5643 5644 5645 5646 5647 5647 5648 5649 5649 5650 5650 5650 5650 5650 5650 5650 5649 5649 5649 5648 5647
5562 5564 5567 5569 5572 5574 5577 5579 5582 5584 5587 5589 5591 5593 5595 5596 5598 5599 5601 5603 5604 5606 5607 5609 5610 5612 5613 5614 5615 5615 5616 5617 5618 5619 5620 5620 5621 5622 5623 5623 5624 5624 5625 5626 5626 5627 5628 5629 5629 5630 5630 5630 5631 5633 5634 5635 5637 5637 5637 5637 5638 5639 5640 5641 5642 5644 5644 5645 5646 5647 5647 5648 5649 5649 5649 5650 5650 5650 5650 5650 5650 5649 5649 5648 5648 5647 5646
5563 5565 5568 5570 5573 5575 5578 5580 5583 5585 5587 5589 5591 5593 5595 5597 5598 5600 5602 5604 5605 5606 5608 5609 5611 5613 5614 5615 5616 5617 5618 5618 5619 5621 5622 5622 5623 5624 5624 5625 5626 5626 5627 5627 5628 5629 5630 5630 5631 5632 5633 5633 5633 5635 5636 5637 5638 5639 5639 5639 5640 5641 5642 5643 5643 5644 5645 5645 5646 5647 5647 5648 5648 5649 5649 5649 5649 5649 5649 5649 5649 5648 5648 5647 5646 5646 5645
5564 5566 5569 5571 5574 5576 5579 5581 5583 5585 5587 5590 5592 5593 5595 5597 5599 5600 5602 5604 5606 5607 5609 5610 5612 5613 5615 5616 5617 5618 5619 5620 5621 5622 5623 5624 5624 5625 5626 5627 5627 5628 5629 5629 5630 5631 5632 5632 5633 5634 5635 5635 5635 5636 5638 5639 5639 5640 5640 5641 5641 5642 5642 5643 5644 5644 5644 5645 5645 5646 5646 5646 5647 5647 5647 5647 5647 5647 5647 5647 5646 5646 5646 5645 5644 5643 5642
5565 5567 5570 5572 5575 5577 5579 5581 5584 5586 5588 5590 5592 5594 5595 5597 5599 5601 5603 5604 5606 5608 5609 5611 5612 5614 5616 5617 5618 5619 5620 5621 5622 5623 5624 5625 5626 5626 5627 5628 5628 5629 5630 5631 5631 5632 5633 5634 5634 5635 5636 5636 5637 5637 5638 5639 5640 5640 5640 5641 5641 5642 5642 5643 5643 5644 5644 5644 5645 5645 5645 5645 5645 5645 5645 5645 5645 5645 5645 5645 5645 5645 5644 5643 5642 5641 5640
5565 5568 5570 5573 5575 5577 5579 5582 5584 5586 5588 5590 5592 5594 5595 5597 5599 5601 5603 5604 5606 5608 5610 5611 5613 5614 5616 5617 5618 5620 5621 5621 5623 5624 5625 5626 5627 5627 5628 5629 5630 5630 5631 5632 5633 5633 5634 5635 5635 5636 5637 5637 5638 5638 5639 5639 5640 5640 5640 5640 5641 5641 5642 5642 5643 5643 5643 5643 5644 5644 5644 5644 5644 5645 5645 5645 5645 5645 5644 5644 5644 5643 5642 5641 5640 5639 5638
5566 5568 5570 5573 5575 5577 5580 5582 5584 5586 5588 5590 5592 5593 5595 5597 5599 5601 5603 5604 5606 5608 5609 5611 5613 5614 5616 5617 5618 5620 5621 5622 5623 5624 5625 5626 5627 5628 5629 5630 5630 5631 5632 5633 5634 5634 5635 5636 5636 5637 5637 5638 5638 5639 5639 5640 5640 5640 5640 5641 5641 5642 5642 5642 5643 5643 5642 5643 5643 5643 5643 5643 5643 5643 5643 5643 5643 5643 5642 5642 5641 5641 5640 5639 5638 5637 5636
5566 5568 5571 5573 5575 5577 5580 5582 5584 5586 5588 5590 5592 5593 5595 5597 5599 5601 5603 5605 5606 5608 5610 5611 5613 5615 5616 5617 5618 5620 5621 5622 5623 5625 5626 5627 5628 5629 5630 5630 5631 5632 5633 5634 5635 5635 5636 5636 5637 5637 5638 5638 5639 5639 5640 5640 5641 5641 5641 5642 5642 5642 5642 5642 5642 5642 5643 5643 5643 5643 5643 5643 5642 5642 5642 5641 5641 5641 5640 5640 5639 5639 5638 5637 5636 5635 5634
5567 5569 5572 5574 5576 5578 5580 5582 5584 5586 5588 5590 5592 5594 5595 5597 5599 5601 5603 5605 5607 5608 5610 5611 5613 5615 5616 5618 5619 5620 5621 5622 5624 5625 5626 5627 5628 5629 5630 5631 5632 5633 5634 5634 5635 5636 5636 5637 5637 5638 5638 5638 5639 5639 5640 5640 5641 5641 5642 5642 5642 5642 5642 5642 5642 5642 5642 5643 5643 5642 5642 5642 5641 5641 5641 5640 5639 5639 5639 5638 5638 5637 5636 5636 5635 5634 5633
5567 5570 5572 5574 5576 5578 5580 5582 5584 5586 5588 5590 5591 5593 5595 5597 5599 5601 5603 5605 5606 5608 5610 5611 5613 5614 5616 5617 5619 5620 5621 5622 5623 5625 5626 5627 5628 5629 5630 5631 5632 5633 5634 5635 5635 5636 5636 5637 5638 5638 5638 5638 5639 5639 5640 5640 5641 5641 5641 5642 5642 5642 5642 5641 5641 5641 5641 5641 5641 5641 5640 5640 5639 5639 5639 5639 5638 5637 5637 5637 5636 5636 5635 5634 5633 5632 5631
5567 5569 5572 5574 5576 5578 5580 5582 5584 5586 5588 5590 5591 5593 5595 5597 5599 5601 5603 5604 5606 5608 5610 5611 5612 5614 5616 5617 5619 5620 5621 5622 5623 5624 5625 5627 5628 5629 5629 5631 5632 5633 5633 5634 5635 5636 5636 5637 5637 5638 5638 5638 5638 5639 5639 5639 5640 5640 5640 5641 5641 5641 5640 5640 5639 5639 5639 5639 5639 5639 5638 5638 5638 5638 5637 5637 5637 5636 5636 5635 5635 5634 5634 5633 5632 5631 5630
5566 5569 5571 5574 5576 5578 5581 5583 5584 5586 5588 5590 5591 5593 5595 5597 5599 5601 5603 5604 5606 5608 5609 5611 5612 5614 5615 5617 5618 5619 5621 5622 5623 5624 5625 5626 5627 5628 5629 5630 5631 5632 5633 5634 5634 5635 5636 5636 5636 5637 5638 5638 5638 5638 5638 5638 5638 5638 5638 5639 5639 5639 5639 5638 5638 5638 5638 5638 5637 5637 5637 5637 5637 5636 5636 5636 5636 5635 5635 5635 5634 5633 5633 5632 5631 5630 5629
5566 5568 5571 5574 5576 5578 5581 5583 5585 5586 5588 5590 5592 5593 5595 5597 5599 5601 5603 5604 5606 5608 5609 5610 5612 5613 5614 5616 5617 5619 5620 5621 5622 5623 5624 5625 5626 5627 5628 5629 5630 5631 5632 5633 5634 5635 5635 5635 5635 5636 5637 5637 5637 5637 5637 5637 5637 5637 5637 5637 5638 5637 5637 5637 5637 5637 5636 5636 5636 5636 5636 5636 5636 5636 5635 5635 5635 5634 5634 5634 5633 5633 5632 5631 5630 5630 5629
5566 5568 5571 5573 5575 5578 5580 5582 5584 5586 5588 5589 5591 5593 5595 5597 5599 5600 5602 5604 5606 5607 5609 5610 5612 5613 5614 5615 5617 5618 5619 5620 5621 5623 5624 5625 5626 5626 5628 5629 5629 5630 5631 5632 5633 5634 5634 5634 5634 5635 5636 5635 5635 5635 5636 5636 5637 5637 5637 5637 5637 5636 5636 5636 5636 5636 5636 5635 5635 5635 5635 5635 5635 5635 5635 5634 5634 5634 5633 5633 5632 5631 5631 5630 5629 5629 5628
5566 5568 5570 5573 5575 5577 5579 5582 5584 5585 5587 5588 5590 5592 5594 5596 5598 5600 5601 5603 5605 5607 5608 5610 5611 5613 5614 5615 5616 5617 5618 5620 5621 5622 5623 5624 5625 5626 5627 5628 5628 5629 5630 5631 5632 5633 5633 5633 5633 5634 5635 5634 5634 5635 5635 5635 5636 5636 5636 5636 5636 5635 5635 5635 5635 5635 5635 5635 5635 5635 5635 5635 5635 5634 5634 5634 5633 5633 5632 5632 5631 5631 5630 5629 5628 5628 5627
5566 5568 5570 5572 5574 5577 5579 5581 5583 5584 5586 5588 5589 5592 5593 5595 5597 5599 5601 5602 5604 5606 5608 5610 5611 5612 5614 5615 5616 5617 5618 5619 5620 5622 5623 5623 5624 5625 5626 5627 5628 5629 5629 5630 5631 5632 5632 5632 5632 5633 5633 5633 5634 5634 5634 5634 5635 5635 5635 5635 5635 5635 5635 5635 5635 5635 5635 5635 5635 5635 5634 5634 5634 5634 5634 5633 5633 5632 5631 5631 5630 5630 5629 5629 5628 5627 5626
5565 5567 5570 5571 5574 5576 5578 5580 5582 5584 5585 5587 5589 5591 5593 5595 5597 5599 5600 5602 5604 5606 5607 5609 5610 5611 5613 5614 5615 5617 5618 5619 5620 5621 5622 5623 5624 5624 5625 5626 5627 5628 5628 5629 5630 5631 5631 5631 5632 5632 5632 5632 5633 5633 5633 5633 5633 5634 5634 5634 5634 5634 5634 5634 5634 5634 5635 5634 5634 5634 5634 5634 5634 5633 5633 5633 5632 5632 5631 5630 5630 5629 5628 5628 5627 5626 5625
5565 5567 5569 5571 5573 5575 5577 5579 5581 5583 5585 5587 5589 5591 5593 5595 5597 5598 5600 5602 5603 5605 5606 5608 5609 5611 5612 5613 5615 5616 5617 5618 5619 5620 5621 5622 5623 5623 5624 5625 5626 5627 5627 5628 5629 5629 5630 5630 5630 5630 5631 5631 5631 5631 5632 5632 5632 5632 5632 5632 5633 5633 5633 5634 5634 5634 5634 5634 5634 5634 5633 5633 5633 5633 5632 5632 5631 5631 5630 5630 5629 5628 5627 5626 5626 5624 5623
5565 5567 5568 5570 5572 5574 5576 5579 5581 5583 5585 5587 5589 5590 5592 5594 5596 5598 5600 5601 5603 5604 5605 5607 5609 5610 5612 5613 5614 5615 5616 5617 5618 5619 5620 5621 5622 5622 5623 5624 5625 5625 5626 5627 5628 5628 5628 5628 5628 5628 5629 5630 5630 5630 5630 5630 5630 5631 5631 5631 5632 5632 5633 5633 5633 5633 5633 5633 5633 5633 5633 5632 5632 5632 5631 5631 5630 5630 5629 5629 5628 5627 5626 5625 5624 5623 5622
5564 5566 5568 5570 5572 5574 5576 5578 5580 5582 5584 5586 5588 5590 5592 5594 5596 5597 5599 5601 5602 5603 5605 5606 5608 5610 5611 5612 5613 5614 5615 5616 5617 5618 5619 5620 5621 5621 5622 5623 5624 5625 5626 5626 5626 5626 5626 5626 5626 5627 5628 5628 5628 5628 5629 5629 5629 5629 5630 5630 5631 5631 5632 5632 5633 5633 5633 5632 5632 5632 5632 5632 5631 5631 5631 5630 5629 5629 5628 5628 5627 5626 5625 5623 5622 5621 5620
5562 5565 5567 5569 5571 5573 5575 5577 5579 5581 5583 5585 5588 5590 5592 5594 5595 5597 5599 5600 5601 5602 5604 5606 5607 5608 5609 5610 5612 5613 5614 5615 5616 5617 5618 5619 5619 5620 5621 5622 5623 5624 5624 5624 5624 5624 5624 5625 5625 5626 5626 5626 5627 5627 5627 5627 5628 5628 5628 5629 5630 5631 5631 5632 5632 5632 5632 5631 5631 5631 5631 5630 5630 5630 5630 5629 5628 5628 5627 5626 5625 5624 5623 5622 5620 5619 5618
5561 5564 5566 5567 5569 5572 5574 5576 5578 5580 5583 5585 5587 5589 5591 5593 5594 5596 5598 5599 5600 5602 5603 5605 5606 5607 5608 5610 5611 5612 5613 5614 5615 5616 5617 5617 5618 5619 5620 5621 5622 5622 5622 5622 5622 5623 5623 5623 5624 5625 5625 5625 5625 5625 5626 5626 5626 5627 5627 5628 5629 5630 5630 5631 5631 5631 5631 5630 5630 5630 5629 5629 5629 5628 5628 5628 5627 5626 5626 5625 5624 5622 5621 5620 5618 5617 5615